GFSMW_500_spd_261.txt.gz
Wind_Speed
27 25 24 27 28 28 30 32 32 35 36 36 35 36 41 45 44 47 47 46 45 45 44 44 45 47 50 51 52 52 50 45 42 44 47 49 48 47 44 43 49 41 39
29 29 29 29 30 31 33 34 36 36 36 37 42 46 42 46 48 47 47 48 48 46 46 46 46 48 49 53 55 55 49 43 42 44 47 49 48 46 44 44 45 46 41
31 31 31 32 33 33 34 37 39 38 39 46 42 42 45 45 46 47 45 45 46 47 48 46 46 47 49 52 54 53 48 42 43 46 46 47 46 42 40 42 43 42 39
32 35 34 34 35 38 40 40 40 41 42 43 42 46 47 49 47 46 48 50 50 49 48 48 48 48 50 52 52 46 43 42 44 46 45 43 42 40 39 39 39 39 40
36 36 36 37 40 42 44 45 45 44 44 43 45 47 46 48 52 55 55 55 52 52 50 51 50 50 51 51 50 46 43 42 45 46 42 38 38 40 37 36 35 37 41
39 40 43 48 51 51 49 47 45 47 48 50 50 51 53 55 55 56 58 58 57 53 52 52 53 52 52 48 46 44 42 43 45 46 40 36 36 36 34 33 34 40 36
46 48 52 55 55 53 50 49 50 49 50 53 53 55 54 54 56 58 59 58 56 56 55 54 55 53 51 47 44 42 42 45 46 46 41 38 42 37 41 40 42 40 40
49 50 52 52 51 49 50 49 47 50 52 53 54 55 56 59 62 63 63 60 59 58 56 56 56 53 49 46 44 43 44 45 46 45 47 46 43 43 46 42 43 38 37
46 48 49 49 52 53 52 51 53 55 55 56 59 60 62 62 64 66 65 64 61 58 57 57 56 51 47 45 43 43 41 43 39 42 35 38 45 48 47 40 40 48 41
44 45 48 52 55 57 57 57 58 58 60 62 64 63 66 67 68 70 67 64 61 60 59 57 53 48 47 44 41 39 41 42 37 36 35 35 33 34 34 40 45 41 42
47 49 51 55 56 59 60 58 58 62 65 66 64 66 69 70 72 73 69 64 60 59 57 55 50 47 45 42 38 37 36 42 37 38 37 34 31 31 31 31 33 42 45
51 52 54 56 58 60 62 63 64 65 65 66 67 69 72 74 75 72 66 61 58 58 56 50 45 44 41 38 36 36 41 37 43 33 34 32 31 30 28 28 29 30 31
56 57 58 60 61 64 66 67 66 67 67 66 68 72 74 76 69 64 61 59 57 54 48 42 39 39 37 36 38 36 40 36 35 33 35 33 27 27 26 26 25 24 25
62 60 59 60 62 65 67 69 69 67 68 69 70 73 75 69 63 59 57 54 51 46 42 40 38 38 38 39 39 39 36 32 33 36 29 29 30 31 28 27 25 24 26
67 64 63 66 62 65 69 71 72 70 69 72 74 76 72 64 58 55 53 49 43 39 35 35 35 37 39 40 40 36 30 29 25 26 31 30 31 28 27 28 29 28 28
68 67 70 70 68 70 72 71 71 73 75 76 77 73 64 57 54 51 46 40 39 37 34 31 32 30 27 27 28 32 26 27 30 30 29 26 31 27 29 31 30 29 27
70 69 68 67 68 68 68 70 73 76 77 75 66 59 55 51 46 42 38 37 36 34 32 29 27 25 25 19 22 23 21 26 28 24 30 31 30 28 26 29 29 27 27
76 72 69 67 66 68 70 73 76 74 65 57 54 51 47 41 37 34 36 36 35 32 28 26 24 23 24 23 22 18 17 18 20 22 24 25 29 31 30 29 27 28 27
75 72 69 70 73 76 76 71 62 54 50 48 46 41 37 34 32 33 33 34 32 31 27 24 26 27 24 25 27 23 22 22 21 24 26 28 29 32 31 28 26 26 26
77 77 76 73 68 62 55 49 46 46 44 40 36 33 33 32 33 35 35 36 32 30 29 27 27 26 27 26 25 23 24 24 24 25 26 28 29 28 27 27 26 26 27
68 62 56 51 48 45 43 41 40 38 36 33 32 32 33 33 34 36 35 33 31 30 30 32 27 27 25 25 23 24 24 27 28 28 28 27 29 27 26 26 26 30 28
47 42 42 39 36 36 36 36 35 35 34 32 33 33 33 33 34 34 34 30 29 29 28 32 35 26 26 27 26 25 25 26 27 28 27 26 25 24 25 25 26 26 26
34 35 34 33 34 33 33 33 33 33 32 32 32 32 33 35 34 34 32 27 28 27 26 27 31 31 25 25 28 26 22 22 23 22 22 21 21 21 22 23 23 23 25
35 34 35 35 33 34 35 36 35 34 32 33 34 34 33 31 31 32 29 26 27 26 25 24 27 26 31 28 28 24 22 21 21 21 22 22 21 21 22 23 23 23 24
36 33 33 32 32 34 36 37 36 35 33 30 30 29 28 29 30 30 26 27 27 26 24 22 24 28 27 29 30 26 23 22 22 22 23 23 23 22 22 22 23 22 22
28 32 29 30 33 36 40 41 37 32 30 32 31 30 29 29 27 26 24 25 25 27 26 23 25 26 28 28 29 29 27 24 22 22 22 22 22 23 23 23 23 21 21

GFSMW_500_spd_267.txt.gz
Wind_Speed
33 28 29 31 33 33 32 31 32 31 31 32 31 31 33 34 38 40 42 41 41 41 44 45 44 44 45 45 46 51 50 46 46 48 50 52 53 54 55 56 57 53 50
32 33 32 33 33 34 35 35 33 33 34 35 34 34 37 40 42 43 43 41 42 45 48 47 46 46 48 50 52 52 47 47 47 48 50 52 55 56 56 56 56 53 52
31 32 32 34 35 35 36 37 37 37 39 41 42 42 45 48 49 46 45 45 47 50 50 49 47 49 52 52 55 52 51 51 49 51 51 52 55 58 57 55 54 52 51
30 30 30 32 34 36 36 37 40 41 44 44 46 47 51 53 49 47 48 49 50 51 52 51 52 54 55 55 54 54 54 54 54 52 51 54 57 57 55 54 50 50 47
32 34 34 35 37 38 40 42 44 45 47 48 50 53 54 51 48 48 50 51 54 54 56 56 56 58 57 57 56 58 57 56 55 53 54 57 57 54 50 47 48 46 43
32 34 36 39 42 43 45 46 48 50 52 54 54 53 52 49 49 51 53 56 57 58 60 60 59 60 61 61 61 62 61 58 56 55 58 58 55 48 44 45 45 43 41
36 39 40 40 42 45 47 48 49 51 52 53 52 51 52 52 53 54 56 58 60 62 61 60 61 62 64 64 64 65 63 61 58 57 59 58 50 44 43 43 42 40 42
42 42 45 48 46 46 47 47 49 51 51 51 53 53 54 56 56 58 59 61 61 62 62 62 64 65 65 65 66 68 66 62 59 59 58 53 45 42 42 39 38 39 41
34 38 40 46 50 49 49 50 51 51 51 52 55 56 57 57 58 60 63 64 64 64 64 65 66 65 65 66 68 69 65 61 59 58 54 48 41 40 39 38 41 36 41
46 41 43 45 48 49 51 51 53 55 56 56 55 56 58 60 63 64 65 64 64 65 67 68 66 66 66 68 71 70 64 59 57 54 50 44 38 40 37 40 43 42 37
54 55 51 48 47 50 54 57 58 57 56 56 58 60 62 63 64 67 67 66 67 67 69 68 69 68 70 71 72 64 59 57 55 50 45 37 41 40 38 35 32 26 30
60 62 64 59 51 51 51 52 54 57 59 61 62 62 63 64 63 66 68 70 70 70 70 71 71 71 73 71 65 60 58 52 49 44 37 35 39 35 36 30 27 26 27
63 65 65 65 60 55 55 57 59 62 64 65 64 64 65 65 65 67 69 70 72 71 72 73 73 74 72 67 61 55 49 46 43 40 36 34 36 39 34 37 29 27 21
71 71 72 69 68 65 64 64 65 66 67 69 67 68 68 66 65 67 69 68 71 73 74 75 75 72 66 59 54 47 42 41 40 36 35 37 40 30 31 33 29 27 20
76 74 71 69 69 67 67 69 68 69 71 72 71 66 65 64 64 66 68 72 74 75 73 74 70 62 54 47 41 39 38 38 35 33 35 37 35 33 29 28 29 23 20
76 74 72 72 72 72 72 72 72 72 71 69 65 62 62 61 64 67 73 77 72 72 74 67 56 44 39 35 35 34 34 32 28 29 29 30 32 32 30 31 29 29 27
74 75 76 73 74 74 73 71 70 68 66 65 61 61 64 61 65 68 69 73 74 68 59 48 38 34 31 31 33 33 32 27 26 24 25 27 28 28 28 31 31 29 28
78 79 76 77 77 77 74 70 65 63 62 61 60 58 63 67 71 76 73 66 57 49 45 36 32 31 32 33 34 34 30 27 25 20 18 22 24 23 24 25 27 28 25
80 78 79 79 79 80 78 75 70 73 68 69 64 69 70 67 62 58 53 47 44 40 36 33 30 31 32 33 34 32 28 27 22 21 12 10 16 19 19 21 25 23 24
83 83 86 86 85 82 79 78 75 66 64 60 57 53 52 52 49 43 40 38 36 34 33 32 31 32 34 32 32 28 27 26 22 21 17 13 11 12 13 14 18 22 24
80 78 77 78 75 73 71 63 56 48 49 52 53 51 44 39 35 33 31 32 33 32 31 31 32 35 34 33 30 27 26 25 24 21 20 18 18 17 18 19 20 21 21
64 59 53 51 52 50 46 42 40 41 51 56 45 37 37 33 29 27 28 29 29 29 32 35 36 33 30 29 26 25 28 26 24 21 22 22 20 20 20 21 20 20 20
61 58 55 55 47 42 41 35 37 38 37 34 33 33 28 25 24 26 28 31 29 27 29 31 31 26 27 25 23 22 25 25 26 24 21 18 19 20 20 20 19 17 17
64 55 50 48 40 37 36 38 36 39 35 33 33 29 26 26 27 28 30 26 29 30 31 31 26 24 26 25 22 22 24 29 26 22 19 17 17 18 17 17 17 17 17
62 62 53 43 38 34 40 37 38 38 36 33 32 27 25 26 26 27 28 26 28 31 30 26 23 23 24 23 21 20 21 20 21 18 18 18 18 16 16 17 17 17 18
42 46 52 61 39 36 35 41 37 36 32 31 30 27 25 25 27 27 25 28 28 27 25 22 20 20 19 20 21 20 24 21 20 19 20 18 16 16 16 16 17 17 18

GFSMW_500_spd_270.txt.gz
Wind_Speed
28 26 25 27 28 29 28 29 30 32 33 35 36 36 35 34 34 35 37 39 41 42 42 40 40 43 44 43 43 43 46 46 47 49 49 49 51 51 51 50 50 51 55
27 29 27 27 29 29 30 31 31 32 33 35 36 36 36 38 39 41 43 45 46 47 44 43 44 45 46 47 48 49 50 52 51 52 53 54 54 53 55 52 51 52 57
28 30 30 29 30 31 32 33 33 34 35 37 38 40 41 42 43 44 45 48 49 49 46 45 46 48 50 52 53 54 55 55 54 56 56 58 57 55 54 53 53 56 59
30 30 31 33 33 33 34 34 35 36 38 40 43 45 46 47 47 49 51 52 51 48 47 47 49 51 53 54 56 58 57 57 58 60 59 61 59 58 55 55 57 59 60
30 30 31 33 35 37 38 39 40 41 42 44 47 48 50 51 52 54 53 51 49 49 49 50 52 54 56 58 57 58 59 60 62 62 60 61 61 61 57 56 59 60 54
29 29 32 33 35 37 40 42 44 46 48 50 53 54 55 55 55 54 52 50 51 51 51 52 53 56 58 59 60 59 61 63 64 63 61 63 62 62 59 61 61 55 46
34 36 37 37 40 41 41 42 43 45 48 50 52 55 55 56 56 55 54 52 51 53 52 52 56 59 60 60 61 62 65 65 63 61 61 65 64 64 61 61 57 48 43
40 41 41 41 39 37 39 42 45 47 48 49 51 55 56 57 55 54 55 56 54 55 56 58 59 60 61 62 62 65 65 63 61 61 63 67 64 61 60 56 50 43 42
43 43 43 44 42 43 43 44 47 51 52 51 53 56 57 58 59 59 56 58 58 60 61 62 62 61 62 62 63 64 63 63 62 63 67 62 60 58 54 49 44 41 38
42 44 45 47 48 46 46 46 48 51 55 58 59 61 61 61 59 58 59 61 63 64 63 64 65 64 63 62 63 63 63 64 65 68 65 60 57 53 48 43 39 39 36
49 48 49 50 52 52 49 51 52 52 54 57 59 62 61 60 62 64 67 69 68 66 66 68 68 66 65 64 65 67 68 69 69 67 60 54 50 47 41 38 37 36 41
50 52 52 54 55 57 59 58 57 58 59 60 60 61 63 65 67 70 71 69 69 68 67 69 69 69 68 67 69 72 73 72 68 60 51 45 43 39 35 37 42 41 34
56 57 58 60 63 64 64 64 64 60 59 60 63 65 66 67 68 70 72 72 70 66 66 68 68 71 70 70 72 73 71 66 58 49 42 40 38 35 33 35 31 38 32
67 67 68 69 70 71 71 70 68 63 61 62 63 65 66 69 70 71 69 67 64 62 64 66 70 69 71 73 70 67 62 54 46 40 39 38 36 33 33 32 27 29 32
74 76 76 75 74 71 69 68 68 65 62 62 62 64 64 66 68 66 62 62 61 65 65 67 67 69 76 70 64 59 49 43 38 35 36 35 33 33 35 36 32 29 29
77 76 76 77 75 73 70 67 66 66 67 65 62 63 64 63 57 60 63 64 68 68 65 67 73 72 65 58 51 41 36 34 34 34 33 30 30 31 31 33 32 32 27
76 76 75 75 75 74 72 71 69 70 70 68 66 65 66 63 62 63 65 65 67 64 69 71 72 62 55 47 40 34 34 32 33 33 30 29 30 29 27 26 27 29 30
77 76 75 73 74 76 77 77 76 75 75 73 71 67 64 66 65 60 59 56 65 69 69 61 54 47 44 38 33 33 31 31 33 31 29 27 26 24 24 25 27 28 32
77 77 77 78 79 80 80 79 78 75 75 70 61 53 52 58 56 59 67 67 64 62 55 47 42 38 34 33 32 31 30 31 31 28 26 22 21 17 19 21 24 26 27
81 81 82 83 82 82 82 82 81 79 74 68 60 51 54 59 64 59 59 54 54 44 40 35 31 32 31 30 29 30 33 33 30 26 24 20 17 13 14 19 20 20 20
76 77 79 80 80 78 75 75 70 61 58 53 52 53 57 57 55 53 50 48 39 32 29 29 30 29 29 30 32 33 32 29 27 26 22 20 18 15 14 15 15 15 16
73 74 76 77 77 80 72 60 56 52 52 51 46 44 47 52 58 40 35 33 28 24 24 26 29 30 29 29 29 28 27 25 25 27 21 19 16 16 15 17 15 15 15
78 80 81 78 72 68 64 58 54 53 48 42 37 39 42 41 37 35 30 22 21 23 25 26 28 30 32 30 27 26 24 24 23 25 24 21 18 17 17 18 17 17 15
83 84 85 84 81 77 71 60 51 44 43 40 34 35 37 34 31 27 25 21 21 23 25 25 28 30 29 26 26 25 24 22 24 25 23 19 19 18 18 19 18 18 17
66 63 61 60 55 53 52 49 45 44 41 41 40 38 35 31 30 27 24 23 24 25 25 26 26 26 25 24 23 22 22 22 22 22 27 20 18 18 19 18 19 19 20
42 37 35 31 30 35 40 36 38 43 40 44 47 33 30 29 28 23 23 23 26 24 23 22 24 22 21 20 19 18 20 20 21 20 20 20 19 19 18 19 19 20 20

GFSMW_500_spd_273.txt.gz
Wind_Speed
29 28 27 27 27 27 28 29 28 29 30 31 32 32 34 34 34 34 33 34 35 37 39 41 42 42 42 40 39 39 41 42 44 45 47 48 48 49 53 54 54 55 53
29 30 30 29 30 31 31 30 30 31 32 33 34 36 36 36 36 37 38 39 40 42 43 44 46 46 45 43 42 43 44 45 47 49 50 50 51 51 56 57 58 58 57
28 29 29 29 29 30 31 32 33 34 35 37 38 38 39 40 40 41 43 44 45 46 48 49 50 49 46 45 45 45 46 48 50 51 52 54 54 57 59 59 59 60 60
27 28 27 28 30 30 30 30 31 33 36 38 40 42 44 44 46 47 48 49 50 51 52 52 51 49 48 47 47 46 47 50 52 53 55 57 59 61 63 61 58 60 60
30 30 30 30 32 31 31 32 34 35 36 39 41 44 46 48 49 51 54 54 54 54 53 52 51 52 50 50 49 48 51 54 54 56 58 59 62 63 61 60 60 60 61
34 35 35 35 34 32 34 36 37 39 40 42 44 46 49 51 52 54 54 55 56 56 56 56 55 52 52 52 51 53 54 55 56 58 60 61 61 61 61 58 60 64 59
38 37 37 38 38 39 40 40 40 37 36 39 42 44 47 50 52 54 57 57 57 58 56 55 54 56 55 54 55 56 57 57 58 59 60 60 60 61 60 60 64 64 61
40 37 38 41 43 44 45 44 43 42 43 43 44 45 48 51 53 54 56 58 59 60 61 61 58 56 57 58 59 59 60 61 60 61 60 60 60 60 61 63 66 63 62
45 45 46 45 46 46 46 45 44 47 47 47 50 51 52 52 54 57 59 60 61 61 60 59 59 61 64 63 61 62 65 64 64 63 64 63 61 62 65 65 62 60 56
47 47 47 46 47 48 49 50 50 50 49 50 50 52 55 56 57 58 60 62 62 63 64 65 67 67 65 64 65 65 68 68 68 66 67 66 66 70 67 60 57 54 49
49 49 49 51 49 49 49 49 51 53 52 53 55 57 58 59 59 58 60 62 65 68 70 72 70 67 68 66 67 68 68 71 70 70 68 68 71 70 62 54 50 48 44
53 50 51 51 51 50 51 52 54 57 60 62 62 61 62 64 62 59 61 66 71 72 72 71 71 67 61 69 69 69 70 71 71 70 67 72 65 61 51 46 46 44 40
54 54 54 53 54 55 58 62 63 64 66 68 67 66 65 64 64 63 64 64 66 68 69 68 66 61 70 68 66 68 69 71 70 67 72 66 56 51 46 44 42 38 38
59 60 60 62 65 68 70 69 69 70 72 71 70 67 63 61 61 61 60 60 59 60 63 61 66 68 67 69 69 68 71 66 67 69 64 54 45 43 42 42 39 35 34
66 69 69 69 70 71 72 72 72 71 69 68 66 62 60 58 60 61 62 60 57 56 58 62 66 68 64 66 69 67 64 68 68 61 48 41 40 40 40 37 34 33 34
75 77 77 77 78 76 74 72 71 70 67 63 61 60 59 60 61 60 63 61 61 60 61 65 66 68 70 64 62 64 70 60 50 44 38 37 38 38 36 33 32 33 32
80 77 75 74 74 75 76 76 74 71 70 69 69 69 68 67 64 62 62 61 60 56 61 64 62 53 57 63 68 62 51 42 34 36 35 35 36 36 34 32 32 29 26
74 74 74 74 74 74 75 75 76 76 76 75 75 73 70 67 63 57 51 54 53 57 61 58 54 49 56 58 53 44 38 34 34 35 33 35 34 34 31 32 30 26 25
74 75 76 77 77 78 79 78 78 80 81 79 77 76 71 64 52 56 55 54 59 61 62 60 54 55 52 49 44 35 32 32 32 31 34 35 34 29 25 27 23 25 25
78 80 80 81 83 84 85 86 87 86 80 79 77 74 69 66 58 50 52 57 54 58 58 62 62 48 39 34 32 31 30 29 30 34 36 35 30 24 23 20 18 16 19
75 75 78 81 82 82 83 83 83 83 83 80 76 72 61 48 45 45 46 64 67 63 58 44 39 26 20 25 29 30 31 31 32 32 30 28 25 23 22 18 16 16 18
74 76 78 80 83 84 85 85 85 85 82 78 74 57 46 47 45 46 49 53 54 52 46 35 17 18 20 24 28 28 30 32 31 29 27 26 23 22 20 16 15 15 16
76 79 81 83 83 86 88 87 86 86 84 80 73 61 50 43 47 42 46 46 41 38 32 20 21 20 20 23 29 32 34 31 29 28 26 24 24 21 18 16 16 16 16
73 74 73 72 72 72 71 69 69 67 65 61 55 45 53 45 48 40 35 33 36 34 25 23 22 21 21 25 27 31 32 29 29 26 24 21 22 23 20 18 19 19 19
54 52 52 50 49 49 46 43 40 39 41 40 40 44 45 42 37 33 34 34 34 32 26 23 21 24 25 26 27 27 28 25 25 23 22 21 23 21 22 19 19 21 21
41 39 39 39 42 43 36 32 31 33 33 37 37 42 37 40 40 34 35 32 31 26 23 22 23 25 23 21 24 25 25 21 20 20 20 18 20 21 21 20 20 20 21